Location: Allison Elementary School
(34.0784°N, 117.7317°W)
Time: 23:25:09
(UTC+00:00)

IUS-18 SRM-1 - Pass Details

Date: 15 November 2019
Orbit: 302 x 20634 km, 27.8° (Epoch: 08 December)

Event Time Altitude Azimuth Distance (km) Brightness Sun altitude
Rises 01:17:58 0° 269° (W) 8,755 10.2 -6.7°
Reaches altitude 10° 01:27:01 10° 265° (W) 5,144 8.8 -8.5°
Maximum altitude 01:36:42 41° 199° (SSW) 1,123 4.2 -10.4°
Drops below altitude 10° 01:39:44 10° 125° (SE) 1,624 4.3 -11.0°
Enters shadow 01:40:03 - 122° (ESE) 1,753 4.5 -11.1°
